Showing default

GLOBALSTAR M069, 31573

Orbit data source: Space-Track

GLOBALSTAR M069, 31573 is a payload satellite owned by Globalstar (US) in LEO that was launched on Tue, 29 May 2007 UTC via a SOYUZ-FG launch vehicle from the Tyuratam Missile And Space Complex (TTMTR). Payload-class satellites include a variety of spacecraft equipped with specific instruments for various scientific and technological missions. These include communications satellites like Starlink; space stations such as the ISS; scientific satellites like the Hubble; Earth observation satellites from companies like Planet Labs, Umbra, and HawkEye 360; GPS; miniature CubeSats for education and research; and military/defense satellites.

Loading next visibility...
Identifier
31573, 2007-020C
Orbit
LEO
Last TLE update
8 hours ago
Origin
Manufacturer
SS/Loral
Mission
Operational Commercial Communications
Bus & Motor
LS-400, LS-400 AOCS
Mass
450 kg wet, 380 kg dry
Launch date (UTC)
2007-05-29 (18 years ago)
Launch vehicle
SOYUZ-FG
Launch site
Tyuratam Missile And Space Complex (TTMTR)
Object type
Payload
Rocket body
Debris
Shape & HBR
Box + 2 Pan, 12 m
Radar Cross Section
5.587 m², Large (>1 m²)

Expand to show TLE details & history

TLE from 8 hours ago
0 GLOBALSTAR M069
1 31573U 07020C   25192.62128552 -.00000108  00000-0 -13932-3 0  9990
2 31573  51.9938 136.0660 0000729 201.8762 329.2338 12.23446994837116
Epoch: 2025-07-11T14:54Z
TLE epoch observation values (Epoch: 2025-07-11T14:54:39.068Z)
Latitude
6.96811°
Longitude
157.17863°
Altitude
1,577.102 km
Speed
7.081 km/s
True Right ascension
20h 42m 26s
True Declination
6° 55' 52"
Sunlit
Object was in full shadow at epoch
Visualization orbit readout
Latitude
-51.88484°
Longitude
-100.78303°
Altitude
1,595.424 km
Speed
7.072 km/s
Apparent Right ascension
01h 35m 14s
Apparent Declination
-50° 11' 37"
Sunlit
Object is in daylight
Visualization observer readout
Local Sidereal Time
11:39:04
Azimuth
233.488° WSW
Elevation
-67.252°
Doppler factor
1
Orbital elements
Apogee altitude
1,578.528 km
Perigee altitude
1,577.368 km
Semi-major axis
7,956.085 km
Eccentricity
0.00007
Inclination
51.9938°
RAAN
136.066°
Arg. of periapsis
201.8762°
True anomaly
Unknown
Mean anomaly
329.2338°
Eccentric anomaly
Unknown
Mean motion
3.0584 °/min
Orbital period
117.71 mins
BSTAR
-0.00013932
Loading maneuver chart data...
Loading SW <> Apogee altitude chart data...
Loading historical data...
Loading historical data...
Loading historical data...
Loading historical data...
Loading historical data...
Loading historical data...
Loading historical data...

GLOBALSTAR M069 Visibility forecast

Observer location: undefined°, undefined°

Span
Click to sort rows by Start time (UTC) header in descending order
Start Az.
Max El. time (UTC)
Max El. Az.
Max El.
End time (UTC)
End Az.
18 mins2025-07-11 23:58:04.758Z246.841° WSW2025-07-12 00:07:04.758Z330.238° NNW42.73°2025-07-12 00:16:04.758Z51.268° ENE
16 mins2025-07-12 02:05:04.758Z291.462° WNW2025-07-12 02:12:04.758Z350.958° N33.027°2025-07-12 02:21:04.758Z62.429° ENE
17 mins2025-07-12 04:10:04.758Z309.424° NW2025-07-12 04:18:04.758Z21.9° NNE37.743°2025-07-12 04:27:04.758Z95.486° ESE
17 mins2025-07-12 06:14:04.758Z304.408° NW2025-07-12 06:22:04.758Z234.254° WSW43.599°2025-07-12 06:31:04.758Z142.28° SSE
10 mins2025-07-12 08:20:04.758Z274.036° WNW2025-07-12 08:25:04.758Z238.267° WSW18.045°2025-07-12 08:30:04.758Z204.235° SW
15 mins2025-07-12 21:28:04.758Z184.605° SSW2025-07-12 21:35:04.758Z122.584° SE32.081°2025-07-12 21:43:04.758Z63.375° ENE
|